COSMOS 1275 DEB, 12693

Orbit data source: Space-Track

COSMOS 1275 DEB, 12693 is space debris in LEO originally from a launch on Thu, 04 Jun 1981 UTC launched from the Plesetsk Missile And Space Complex (PKMTR). Debris objects in space refer to the collection of defunct objects orbiting the Earth. Examples of debris include non-operational satellites, rocket bodies, and fragments generated from explosions, collisions, or faulty payload assembly.

Loading next visibility...
Identifier
12693, 1981-053AM
Orbit
LEO
Country
Flag of CISCIS
Related business
Manufacturer
Unknown
Mission
Spacecraft
Bus & Motor
Unknown
Mass
Unknown
Launch date (UTC)
1981-06-04 (44 years ago)
Launch vehicle
Unknown
Launch site
Plesetsk Missile And Space Complex (PKMTR)
Object type
Payload
Rocket body
Debris
Shape & HBR
Unknown
Radar Cross Section
Medium (>0.1 m² and <1 m²)

Expand to show TLE details & history
Last TLE update: 13 hours ago

TLE from 13 hours ago
0 COSMOS 1275 DEB
1 12693U 81053AM  25260.77889780  .00001111  00000-0  50494-3 0  9996
2 12693  83.1464 148.2435 0046268 152.3311 273.5121 14.20429889949389
Epoch: 2025-09-17T18:41Z
TLE epoch observation values (Epoch: 2025-09-17T18:41:36.769Z)
Latitude
64.52578°
Longitude
-114.57623°
Altitude
833.155 km
Speed
7.443 km/s
True Right ascension
10h 51m 06s
True Declination
64° 23' 36"
Sunlit
Object was in daylight at epoch
Visualization orbit readout
Latitude
Unknown
Longitude
Unknown
Altitude
Unknown
Speed
Unknown
Apparent Right ascension
Unknown
Apparent Declination
Unknown
Sunlit
N/A
Visualization observer readout
Local Sidereal Time
00:10:40
Azimuth
Unknown
Elevation
Unknown
Doppler factor
Unknown
Orbital elements
Apogee altitude
854.286 km
Perigee altitude
787.669 km
Semi-major axis
7,199.115 km
Eccentricity
0.00463
Inclination
83.1464°
RAAN
148.2435°
Arg. of periapsis
152.3311°
True anomaly
272.98272°
Mean anomaly
273.5121°
Eccentric anomaly
273.24743°
Mean motion
3.55324 °/min
Orbital period
101.32 mins
BSTAR
0.00050494
Loading maneuver chart data...
Computing Atmospheric mass density...
Loading historical data...
Loading historical data...
Loading historical data...
Loading historical data...
Loading historical data...
Loading historical data...
Loading historical data...

Documentation

Showing up to 5 results
|